Time,TemperatureF,DewpointF,PressureIn,WindDirection,WindDirectionDegrees,WindSpeedMPH,WindSpeedGustMPH,Humidity,HourlyPrecipIn,Conditions,Clouds,dailyrainin,SoftwareType,DateUTC
2013-03-24 00:02:00,29.0,18.0,-100.00,North,0,4.0,10.0,61,0.00,,,0.00,,2013-03-24 05:02:00,
2013-03-24 00:12:00,29.0,18.0,-100.00,North,355,6.0,9.0,62,0.00,,,0.00,,2013-03-24 05:12:00,
2013-03-24 00:22:00,29.0,18.0,-100.00,North,355,4.0,8.0,63,0.00,,,0.00,,2013-03-24 05:22:00,
2013-03-24 00:32:00,29.0,18.0,-100.00,North,355,5.0,9.0,63,0.00,,,0.00,,2013-03-24 05:32:00,
2013-03-24 00:42:00,29.0,18.0,-100.00,North,5,5.0,7.0,64,0.00,,,0.00,,2013-03-24 05:42:00,
2013-03-24 00:52:00,29.0,18.0,-100.00,North,10,4.0,7.0,64,0.00,,,0.00,,2013-03-24 05:52:00,
2013-03-24 01:02:00,29.0,18.0,-100.00,North,0,4.0,7.0,64,0.00,,,0.00,,2013-03-24 06:02:00,
2013-03-24 01:12:00,29.0,18.0,-100.00,NNE,25,3.0,7.0,64,0.00,,,0.00,,2013-03-24 06:12:00,
2013-03-24 01:22:00,29.0,18.0,-100.00,North,0,4.0,7.0,64,0.00,,,0.00,,2013-03-24 06:22:00,
2013-03-24 01:32:00,29.0,18.0,-100.00,NNE,30,4.0,7.0,64,0.00,,,0.00,,2013-03-24 06:32:00,
2013-03-24 01:42:00,29.0,18.0,-100.00,North,10,4.0,9.0,64,0.00,,,0.00,,2013-03-24 06:42:00,
2013-03-24 01:52:00,28.0,18.0,-100.00,North,0,4.0,9.0,64,0.00,,,0.00,,2013-03-24 06:52:00,
2013-03-24 02:02:00,28.0,18.0,-100.00,ENE,60,5.0,7.0,64,0.00,,,0.00,,2013-03-24 07:02:00,
2013-03-24 02:12:00,28.0,18.0,-100.00,NE,40,4.0,7.0,64,0.00,,,0.00,,2013-03-24 07:12:00,
2013-03-24 02:22:00,28.0,18.0,-100.00,NE,35,3.0,8.0,64,0.00,,,0.00,,2013-03-24 07:22:00,
2013-03-24 02:32:00,28.0,18.0,-100.00,NNE,25,4.0,7.0,65,0.00,,,0.00,,2013-03-24 07:32:00,
2013-03-24 02:42:00,28.0,18.0,-100.00,North,0,5.0,7.0,65,0.00,,,0.00,,2013-03-24 07:42:00,
2013-03-24 02:52:00,28.0,18.0,-100.00,North,0,4.0,9.0,65,0.00,,,0.00,,2013-03-24 07:52:00,
2013-03-24 03:03:00,28.0,18.0,-100.00,North,5,4.0,8.0,65,0.00,,,0.00,,2013-03-24 08:03:00,
2013-03-24 03:12:00,28.0,18.0,-100.00,North,10,4.0,7.0,65,0.00,,,0.00,,2013-03-24 08:12:00,
2013-03-24 03:22:00,28.0,18.0,-100.00,North,350,5.0,7.0,65,0.00,,,0.00,,2013-03-24 08:22:00,
2013-03-24 03:32:00,28.0,18.0,-100.00,North,5,4.0,7.0,65,0.00,,,0.00,,2013-03-24 08:32:00,
2013-03-24 03:42:00,27.0,18.0,-100.00,North,350,5.0,9.0,66,0.00,,,0.00,,2013-03-24 08:42:00,
2013-03-24 03:52:00,27.0,18.0,-100.00,North,0,7.0,9.0,66,0.00,,,0.00,,2013-03-24 08:52:00,
2013-03-24 04:02:00,27.0,18.0,-100.00,North,5,4.0,9.0,66,0.00,,,0.00,,2013-03-24 09:02:00,
2013-03-24 04:12:00,27.0,18.0,-100.00,North,0,5.0,8.0,66,0.00,,,0.00,,2013-03-24 09:12:00,
2013-03-24 04:22:00,27.0,18.0,-100.00,North,5,4.0,7.0,66,0.00,,,0.00,,2013-03-24 09:22:00,
2013-03-24 04:33:00,27.0,18.0,-100.00,North,0,3.0,6.0,66,0.00,,,0.00,,2013-03-24 09:33:00,
2013-03-24 04:42:00,27.0,18.0,-100.00,NNW,345,3.0,6.0,66,0.00,,,0.00,,2013-03-24 09:42:00,
2013-03-24 04:52:00,27.0,18.0,-100.00,North,0,2.0,7.0,66,0.00,,,0.00,,2013-03-24 09:52:00,
2013-03-24 05:03:00,27.0,18.0,-100.00,NNW,345,2.0,7.0,66,0.00,,,0.00,,2013-03-24 10:03:00,
2013-03-24 05:12:00,27.0,18.0,-100.00,North,10,2.0,7.0,66,0.00,,,0.00,,2013-03-24 10:12:00,
2013-03-24 05:22:00,27.0,18.0,-100.00,North,0,1.0,4.0,66,0.00,,,0.00,,2013-03-24 10:22:00,
2013-03-24 05:32:00,27.0,18.0,-100.00,NE,50,2.0,7.0,67,0.00,,,0.00,,2013-03-24 10:32:00,
2013-03-24 05:42:00,27.0,18.0,-100.00,NNE,25,3.0,7.0,67,0.00,,,0.00,,2013-03-24 10:42:00,
2013-03-24 05:52:00,27.0,18.0,-100.00,NNE,25,4.0,7.0,67,0.00,,,0.00,,2013-03-24 10:52:00,
2013-03-24 06:03:00,26.0,18.0,-100.00,NNE,15,3.0,6.0,68,0.00,,,0.00,,2013-03-24 11:03:00,
2013-03-24 06:12:00,26.0,18.0,-100.00,NE,40,4.0,7.0,68,0.00,,,0.00,,2013-03-24 11:12:00,
2013-03-24 06:22:00,26.0,18.0,-100.00,NNE,30,4.0,7.0,68,0.00,,,0.00,,2013-03-24 11:22:00,
2013-03-24 06:32:00,26.0,18.0,-100.00,NNE,25,4.0,7.0,68,0.00,,,0.00,,2013-03-24 11:32:00,
2013-03-24 06:42:00,26.0,18.0,-100.00,North,10,3.0,7.0,69,0.00,,,0.00,,2013-03-24 11:42:00,
2013-03-24 06:52:00,26.0,18.0,-100.00,North,10,4.0,7.0,69,0.00,,,0.00,,2013-03-24 11:52:00,
2013-03-24 07:02:00,26.0,18.0,-100.00,NE,45,4.0,8.0,69,0.00,,,0.00,,2013-03-24 12:02:00,
2013-03-24 07:12:00,26.0,18.0,-100.00,NE,50,4.0,8.0,69,0.00,,,0.00,,2013-03-24 12:12:00,
2013-03-24 07:22:00,26.0,18.0,-100.00,NE,45,4.0,8.0,69,0.00,,,0.00,,2013-03-24 12:22:00,
2013-03-24 07:32:00,26.0,18.0,-100.00,NE,50,3.0,7.0,70,0.00,,,0.00,,2013-03-24 12:32:00,
2013-03-24 07:42:00,26.0,18.0,-100.00,NNE,25,4.0,9.0,70,0.00,,,0.00,,2013-03-24 12:42:00,
2013-03-24 07:52:00,26.0,18.0,-100.00,NNE,25,4.0,9.0,70,0.00,,,0.00,,2013-03-24 12:52:00,
2013-03-24 08:02:00,26.0,18.0,-100.00,NNE,15,4.0,9.0,70,0.00,,,0.00,,2013-03-24 13:02:00,
2013-03-24 08:12:00,26.0,18.0,-100.00,NNE,20,5.0,9.0,70,0.00,,,0.00,,2013-03-24 13:12:00,
2013-03-24 08:22:00,26.0,18.0,-100.00,NNE,20,3.0,9.0,71,0.00,,,0.00,,2013-03-24 13:22:00,
2013-03-24 08:32:00,26.0,18.0,-100.00,NNE,20,4.0,7.0,71,0.00,,,0.00,,2013-03-24 13:32:00,
2013-03-24 08:42:00,26.0,18.0,-100.00,North,350,6.0,9.0,71,0.00,,,0.00,,2013-03-24 13:42:00,
2013-03-24 08:52:00,26.0,18.0,-100.00,North,10,2.0,6.0,71,0.00,,,0.00,,2013-03-24 13:52:00,
2013-03-24 09:02:00,26.0,18.0,-100.00,North,0,4.0,9.0,71,0.00,,,0.00,,2013-03-24 14:02:00,
2013-03-24 09:12:00,26.0,18.0,-100.00,NNE,20,4.0,9.0,71,0.00,,,0.00,,2013-03-24 14:12:00,
2013-03-24 09:22:00,27.0,19.0,-100.00,NE,50,4.0,6.0,71,0.00,,,0.00,,2013-03-24 14:22:00,
2013-03-24 09:32:00,27.0,19.0,-100.00,NE,55,3.0,7.0,70,0.00,,,0.00,,2013-03-24 14:32:00,
2013-03-24 09:42:00,27.0,19.0,-100.00,NE,50,7.0,10.0,70,0.00,,,0.00,,2013-03-24 14:42:00,
2013-03-24 09:52:00,27.0,19.0,-100.00,NE,45,6.0,9.0,70,0.00,,,0.00,,2013-03-24 14:52:00,
2013-03-24 10:02:00,28.0,19.0,-100.00,NNE,25,5.0,8.0,70,0.00,,,0.00,,2013-03-24 15:02:00,
2013-03-24 10:12:00,28.0,19.0,-100.00,NE,50,5.0,10.0,68,0.00,,,0.00,,2013-03-24 15:12:00,
2013-03-24 10:22:00,28.0,19.0,-100.00,NE,55,6.0,9.0,68,0.00,,,0.00,,2013-03-24 15:22:00,
2013-03-24 10:33:00,29.0,19.0,-100.00,NNE,30,5.0,9.0,66,0.00,,,0.00,,2013-03-24 15:33:00,
2013-03-24 10:43:00,29.0,19.0,-100.00,NNE,30,4.0,9.0,65,0.00,,,0.00,,2013-03-24 15:43:00,
2013-03-24 10:53:00,29.0,18.0,-100.00,North,10,6.0,9.0,63,0.00,,,0.00,,2013-03-24 15:53:00,
2013-03-24 11:03:00,29.0,18.0,-100.00,North,5,7.0,13.0,62,0.00,,,0.00,,2013-03-24 16:03:00,
2013-03-24 11:12:00,29.0,18.0,-100.00,North,0,6.0,13.0,62,0.00,,,0.00,,2013-03-24 16:12:00,
2013-03-24 11:22:00,29.0,18.0,-100.00,NE,40,6.0,14.0,61,0.00,,,0.00,,2013-03-24 16:22:00,
2013-03-24 11:33:00,30.0,18.0,-100.00,NE,55,4.0,9.0,61,0.00,,,0.00,,2013-03-24 16:33:00,
2013-03-24 11:42:00,30.0,18.0,-100.00,ENE,65,6.0,9.0,61,0.00,,,0.00,,2013-03-24 16:42:00,
2013-03-24 11:52:00,29.0,18.0,-100.00,NW,315,6.0,12.0,60,0.00,,,0.00,,2013-03-24 16:52:00,
2013-03-24 12:02:00,29.0,18.0,-100.00,NNW,340,9.0,12.0,61,0.00,,,0.00,,2013-03-24 17:02:00,
2013-03-24 12:12:00,29.0,18.0,-100.00,North,0,7.0,12.0,62,0.00,,,0.00,,2013-03-24 17:12:00,
2013-03-24 12:22:00,30.0,18.0,-100.00,NNW,340,7.0,11.0,61,0.00,,,0.00,,2013-03-24 17:22:00,
2013-03-24 12:32:00,32.0,19.0,-100.00,NNW,345,4.0,9.0,59,0.00,,,0.00,,2013-03-24 17:32:00,
2013-03-24 12:42:00,31.0,18.0,-100.00,North,350,4.0,11.0,58,0.00,,,0.00,,2013-03-24 17:42:00,
2013-03-24 12:52:00,32.0,18.0,-100.00,NW,305,6.0,10.0,56,0.00,,,0.00,,2013-03-24 17:52:00,
2013-03-24 13:03:00,33.0,18.0,-100.00,NW,310,4.0,9.0,54,0.00,,,0.00,,2013-03-24 18:03:00,
2013-03-24 13:12:00,33.0,18.0,-100.00,NNE,15,3.0,12.0,54,0.00,,,0.00,,2013-03-24 18:12:00,
2013-03-24 13:22:00,35.0,19.0,-100.00,NE,55,2.0,12.0,50,0.00,,,0.00,,2013-03-24 18:22:00,
2013-03-24 13:32:00,36.0,18.0,-100.00,WNW,295,5.0,11.0,47,0.00,,,0.00,,2013-03-24 18:32:00,
2013-03-24 13:42:00,33.0,16.0,-100.00,North,5,5.0,11.0,48,0.00,,,0.00,,2013-03-24 18:42:00,
2013-03-24 13:52:00,33.0,16.0,-100.00,North,0,7.0,10.0,48,0.00,,,0.00,,2013-03-24 18:52:00,
2013-03-24 14:02:00,33.0,16.0,-100.00,NE,45,7.0,12.0,48,0.00,,,0.00,,2013-03-24 19:02:00,
2013-03-24 14:12:00,34.0,16.0,-100.00,North,0,5.0,9.0,48,0.00,,,0.00,,2013-03-24 19:12:00,
2013-03-24 14:22:00,33.0,16.0,-100.00,North,0,8.0,12.0,46,0.00,,,0.00,,2013-03-24 19:22:00,
2013-03-24 14:32:00,34.0,16.0,-100.00,North,0,6.0,11.0,47,0.00,,,0.00,,2013-03-24 19:32:00,
2013-03-24 14:42:00,35.0,18.0,-100.00,NW,310,3.0,11.0,46,0.00,,,0.00,,2013-03-24 19:42:00,
2013-03-24 14:52:00,33.0,16.0,-100.00,North,0,4.0,11.0,47,0.00,,,0.00,,2013-03-24 19:52:00,
2013-03-24 15:02:00,34.0,16.0,-100.00,North,0,4.0,9.0,47,0.00,,,0.00,,2013-03-24 20:02:00,
2013-03-24 15:12:00,35.0,16.0,-100.00,NNW,330,4.0,9.0,46,0.00,,,0.00,,2013-03-24 20:12:00,
2013-03-24 15:22:00,35.0,16.0,-100.00,West,275,5.0,10.0,46,0.00,,,0.00,,2013-03-24 20:22:00,
2013-03-24 15:32:00,34.0,16.0,-100.00,NW,315,2.0,8.0,46,0.00,,,0.00,,2013-03-24 20:32:00,
2013-03-24 15:42:00,34.0,16.0,-100.00,NW,325,2.0,8.0,47,0.00,,,0.00,,2013-03-24 20:42:00,
2013-03-24 15:52:00,34.0,16.0,-100.00,North,10,5.0,7.0,46,0.00,,,0.00,,2013-03-24 20:52:00,
2013-03-24 16:02:00,33.0,16.0,-100.00,NW,320,5.0,11.0,46,0.00,,,0.00,,2013-03-24 21:02:00,
2013-03-24 16:12:00,33.0,14.0,-100.00,North,0,6.0,10.0,47,0.00,,,0.00,,2013-03-24 21:12:00,
2013-03-24 16:22:00,33.0,16.0,-100.00,North,350,4.0,7.0,47,0.00,,,0.00,,2013-03-24 21:22:00,
2013-03-24 16:33:00,33.0,16.0,-100.00,North,5,3.0,7.0,47,0.00,,,0.00,,2013-03-24 21:33:00,
2013-03-24 16:43:00,33.0,16.0,-100.00,NNW,345,5.0,10.0,48,0.00,,,0.00,,2013-03-24 21:43:00,
2013-03-24 16:52:00,33.0,16.0,-100.00,NW,315,6.0,9.0,48,0.00,,,0.00,,2013-03-24 21:52:00,
2013-03-24 17:02:00,32.0,16.0,-100.00,NNW,340,7.0,11.0,50,0.00,,,0.00,,2013-03-24 22:02:00,
2013-03-24 17:13:00,32.0,16.0,-100.00,North,0,7.0,11.0,51,0.00,,,0.00,,2013-03-24 22:13:00,
2013-03-24 17:22:00,32.0,16.0,-100.00,North,5,7.0,13.0,52,0.00,,,0.00,,2013-03-24 22:22:00,
2013-03-24 17:33:00,32.0,16.0,-100.00,North,0,7.0,12.0,52,0.00,,,0.00,,2013-03-24 22:33:00,
2013-03-24 17:42:00,32.0,18.0,-100.00,North,0,4.0,12.0,52,0.00,,,0.00,,2013-03-24 22:42:00,
2013-03-24 17:52:00,32.0,16.0,-100.00,North,0,6.0,12.0,52,0.00,,,0.00,,2013-03-24 22:52:00,
2013-03-24 18:02:00,31.0,18.0,-100.00,NW,320,6.0,13.0,54,0.00,,,0.00,,2013-03-24 23:02:00,
2013-03-24 18:12:00,31.0,18.0,-100.00,NW,315,6.0,14.0,56,0.00,,,0.00,,2013-03-24 23:12:00,
2013-03-24 18:22:00,30.0,18.0,-100.00,North,350,5.0,10.0,60,0.00,,,0.00,,2013-03-24 23:22:00,
2013-03-24 18:32:00,30.0,19.0,-100.00,NW,325,7.0,11.0,62,0.00,,,0.00,,2013-03-24 23:32:00,
2013-03-24 18:42:00,30.0,19.0,-100.00,North,0,4.0,12.0,64,0.00,,,0.00,,2013-03-24 23:42:00,
2013-03-24 18:52:00,30.0,19.0,-100.00,NNW,330,5.0,9.0,66,0.00,,,0.00,,2013-03-24 23:52:00,
2013-03-24 19:02:00,30.0,21.0,-100.00,NNW,330,4.0,9.0,67,0.00,,,0.00,,2013-03-25 00:02:00,
2013-03-24 19:12:00,30.0,21.0,-100.00,NW,315,7.0,11.0,68,0.00,,,0.00,,2013-03-25 00:12:00,
2013-03-24 19:22:00,29.0,21.0,-100.00,NNW,330,6.0,11.0,72,0.00,,,0.00,,2013-03-25 00:22:00,
2013-03-24 19:32:00,29.0,21.0,-100.00,NW,310,6.0,11.0,72,0.00,,,0.00,,2013-03-25 00:32:00,
2013-03-24 19:42:00,29.0,21.0,-100.00,NW,325,4.0,12.0,72,0.00,,,0.00,,2013-03-25 00:42:00,
2013-03-24 19:52:00,29.0,21.0,-100.00,NW,320,6.0,9.0,71,0.00,,,0.00,,2013-03-25 00:52:00,
2013-03-24 20:02:00,30.0,19.0,-100.00,North,5,7.0,15.0,68,0.00,,,0.00,,2013-03-25 01:02:00,
2013-03-24 20:12:00,30.0,19.0,-100.00,NNE,15,6.0,11.0,66,0.00,,,0.00,,2013-03-25 01:12:00,
2013-03-24 20:22:00,29.0,19.0,-100.00,North,0,5.0,15.0,65,0.00,,,0.00,,2013-03-25 01:22:00,
2013-03-24 20:32:00,29.0,19.0,-100.00,North,355,7.0,12.0,65,0.00,,,0.00,,2013-03-25 01:32:00,
2013-03-24 20:42:00,29.0,19.0,-100.00,North,0,7.0,14.0,65,0.00,,,0.00,,2013-03-25 01:42:00,
2013-03-24 20:52:00,29.0,19.0,-100.00,North,350,9.0,13.0,65,0.00,,,0.00,,2013-03-25 01:52:00,
2013-03-24 21:02:00,29.0,19.0,-100.00,North,5,7.0,12.0,65,0.00,,,0.00,,2013-03-25 02:02:00,
2013-03-24 21:12:00,29.0,19.0,-100.00,North,0,6.0,12.0,65,0.00,,,0.00,,2013-03-25 02:12:00,
2013-03-24 21:22:00,29.0,18.0,-100.00,North,350,7.0,17.0,64,0.00,,,0.00,,2013-03-25 02:22:00,
2013-03-24 21:32:00,29.0,18.0,-100.00,NNW,340,7.0,15.0,64,0.00,,,0.00,,2013-03-25 02:32:00,
2013-03-24 21:42:00,29.0,18.0,-100.00,NNW,345,7.0,16.0,64,0.00,,,0.00,,2013-03-25 02:42:00,
2013-03-24 21:52:00,29.0,18.0,-100.00,North,0,8.0,13.0,64,0.00,,,0.00,,2013-03-25 02:52:00,
2013-03-24 22:02:00,28.0,18.0,-100.00,North,0,4.0,11.0,64,0.00,,,0.00,,2013-03-25 03:02:00,
2013-03-24 22:12:00,28.0,18.0,-100.00,North,0,11.0,19.0,64,0.00,,,0.00,,2013-03-25 03:12:00,
2013-03-24 22:22:00,28.0,18.0,-100.00,North,0,6.0,13.0,64,0.00,,,0.00,,2013-03-25 03:22:00,
2013-03-24 22:33:00,28.0,18.0,-100.00,North,0,7.0,15.0,63,0.00,,,0.00,,2013-03-25 03:33:00,
2013-03-24 22:42:00,28.0,18.0,-100.00,NNE,20,6.0,11.0,63,0.00,,,0.00,,2013-03-25 03:42:00,
2013-03-24 22:52:00,28.0,18.0,-100.00,North,5,6.0,16.0,63,0.00,,,0.00,,2013-03-25 03:52:00,
2013-03-24 23:02:00,28.0,18.0,-100.00,NNE,20,6.0,14.0,63,0.00,,,0.00,,2013-03-25 04:02:00,
2013-03-24 23:12:00,28.0,18.0,-100.00,North,0,6.0,14.0,63,0.00,,,0.00,,2013-03-25 04:12:00,
2013-03-24 23:22:00,27.0,18.0,-100.00,North,0,4.0,10.0,64,0.00,,,0.00,,2013-03-25 04:22:00,
2013-03-24 23:33:00,27.0,18.0,-100.00,North,0,6.0,9.0,65,0.00,,,0.00,,2013-03-25 04:33:00,
2013-03-24 23:42:00,27.0,18.0,-100.00,North,0,6.0,12.0,66,0.00,,,0.00,,2013-03-25 04:42:00,
2013-03-24 23:52:00,27.0,18.0,-100.00,North,0,6.0,10.0,66,0.00,,,0.00,,2013-03-25 04:52:00,